Time,TemperatureF,DewpointF,PressureIn,WindDirection,WindDirectionDegrees,WindSpeedMPH,WindSpeedGustMPH,Humidity,HourlyPrecipIn,Conditions,Clouds,dailyrainin,SolarRadiationWatts/m^2,SoftwareType,DateUTC
2013-03-26 00:11:00,27.5,14.0,30.03,NE,45,2.0,-999.0,57,-99.99,,,0.00,0,weatherlink.com 1.10,2013-03-25 23:11:00,
2013-03-26 00:27:00,27.4,14.0,30.02,North,10,2.0,-999.0,57,-99.99,,,0.00,0,weatherlink.com 1.10,2013-03-25 23:27:00,
2013-03-26 00:41:00,27.2,14.0,30.02,ESE,108,2.0,-999.0,57,-99.99,,,0.00,0,weatherlink.com 1.10,2013-03-25 23:41:00,
2013-03-26 00:57:00,27.0,14.0,30.02,ENE,67,0.0,-999.0,58,-99.99,,,0.00,0,weatherlink.com 1.10,2013-03-25 23:57:00,
2013-03-26 01:11:00,26.8,14.0,30.02,ENE,71,1.0,-999.0,59,-99.99,,,0.00,0,weatherlink.com 1.10,2013-03-26 00:11:00,
2013-03-26 01:27:00,26.6,14.0,30.01,North,5,0.0,-999.0,59,-99.99,,,0.00,0,weatherlink.com 1.10,2013-03-26 00:27:00,
2013-03-26 01:41:00,26.5,14.0,30.01,ENE,58,0.0,-999.0,59,-99.99,,,0.00,0,weatherlink.com 1.10,2013-03-26 00:41:00,
2013-03-26 01:57:00,26.4,14.0,30.01,East,90,2.0,-999.0,60,-99.99,,,0.00,0,weatherlink.com 1.10,2013-03-26 00:57:00,
2013-03-26 02:12:00,26.3,14.0,30.01,NE,49,2.0,-999.0,60,-99.99,,,0.00,0,weatherlink.com 1.10,2013-03-26 01:12:00,
2013-03-26 02:27:00,26.3,14.0,30.01,ENE,71,0.0,-999.0,60,-99.99,,,0.00,0,weatherlink.com 1.10,2013-03-26 01:27:00,
2013-03-26 02:41:00,26.3,14.0,30.00,NNE,22,0.0,-999.0,60,-99.99,,,0.00,0,weatherlink.com 1.10,2013-03-26 01:41:00,
2013-03-26 02:57:00,26.2,14.0,30.00,NE,50,0.0,-999.0,61,-99.99,,,0.00,0,weatherlink.com 1.10,2013-03-26 01:57:00,
2013-03-26 03:12:00,26.1,14.0,29.99,NE,46,0.0,-999.0,61,-99.99,,,0.00,0,weatherlink.com 1.10,2013-03-26 02:12:00,
2013-03-26 03:27:00,26.1,14.0,29.99,East,85,2.0,-999.0,61,-99.99,,,0.00,0,weatherlink.com 1.10,2013-03-26 02:27:00,
2013-03-26 03:41:00,26.0,14.0,29.99,NNE,21,0.0,-999.0,62,-99.99,,,0.00,0,weatherlink.com 1.10,2013-03-26 02:41:00,
2013-03-26 03:57:00,25.9,14.0,29.98,ENE,73,2.0,-999.0,62,-99.99,,,0.00,0,weatherlink.com 1.10,2013-03-26 02:57:00,
2013-03-26 04:11:00,25.8,14.0,29.98,ENE,62,0.0,-999.0,61,-99.99,,,0.00,0,weatherlink.com 1.10,2013-03-26 03:11:00,
2013-03-26 04:27:00,25.8,14.0,29.98,NNE,28,0.0,-999.0,61,-99.99,,,0.00,0,weatherlink.com 1.10,2013-03-26 03:27:00,
2013-03-26 04:41:00,25.7,14.0,29.98,ENE,65,0.0,-999.0,61,-99.99,,,0.00,0,weatherlink.com 1.10,2013-03-26 03:41:00,
2013-03-26 04:56:00,25.6,14.0,29.98,NE,35,2.0,-999.0,62,-99.99,,,0.00,0,weatherlink.com 1.10,2013-03-26 03:56:00,
2013-03-26 05:12:00,25.5,14.0,29.98,ENE,73,0.0,-999.0,61,-99.99,,,0.00,0,weatherlink.com 1.10,2013-03-26 04:12:00,
2013-03-26 05:27:00,25.5,13.0,29.98,NNE,32,1.0,-999.0,60,-99.99,,,0.00,0,weatherlink.com 1.10,2013-03-26 04:27:00,
2013-03-26 05:42:00,25.5,13.0,29.98,NE,44,0.0,-999.0,60,-99.99,,,0.00,0,weatherlink.com 1.10,2013-03-26 04:42:00,
2013-03-26 05:57:00,25.5,13.0,29.98,NE,36,3.0,-999.0,59,-99.99,,,0.00,0,weatherlink.com 1.10,2013-03-26 04:57:00,
2013-03-26 06:12:00,25.5,13.0,29.97,ENE,71,1.0,-999.0,59,-99.99,,,0.00,7,weatherlink.com 1.10,2013-03-26 05:12:00,
2013-03-26 06:27:00,25.6,13.0,29.98,ENE,66,1.0,-999.0,59,-99.99,,,0.00,14,weatherlink.com 1.10,2013-03-26 05:27:00,
2013-03-26 06:41:00,25.7,13.0,29.98,NNE,27,0.0,-999.0,58,-99.99,,,0.00,25,weatherlink.com 1.10,2013-03-26 05:41:00,
2013-03-26 06:57:00,25.8,13.0,29.97,NNE,14,1.0,-999.0,58,-99.99,,,0.00,37,weatherlink.com 1.10,2013-03-26 05:57:00,
2013-03-26 07:11:00,25.9,13.0,29.97,NNE,28,1.0,-999.0,58,-99.99,,,0.00,51,weatherlink.com 1.10,2013-03-26 06:11:00,
2013-03-26 07:27:00,26.0,13.0,29.97,NE,52,2.0,-999.0,57,-99.99,,,0.00,62,weatherlink.com 1.10,2013-03-26 06:27:00,
2013-03-26 07:42:00,26.2,12.0,29.97,North,10,1.0,-999.0,56,-99.99,,,0.00,70,weatherlink.com 1.10,2013-03-26 06:42:00,
2013-03-26 07:57:00,26.4,12.0,29.97,NE,52,1.0,-999.0,55,-99.99,,,0.00,83,weatherlink.com 1.10,2013-03-26 06:57:00,
2013-03-26 08:12:00,26.5,12.0,29.97,NE,36,2.0,-999.0,54,-99.99,,,0.00,95,weatherlink.com 1.10,2013-03-26 07:12:00,
2013-03-26 08:27:00,26.7,12.0,29.97,NNE,27,2.0,-999.0,53,-99.99,,,0.00,109,weatherlink.com 1.10,2013-03-26 07:27:00,
2013-03-26 08:41:00,26.9,11.0,29.97,NNE,14,1.0,-999.0,52,-99.99,,,0.00,120,weatherlink.com 1.10,2013-03-26 07:41:00,
2013-03-26 08:57:00,27.4,12.0,29.97,NE,37,4.0,-999.0,52,-99.99,,,0.00,130,weatherlink.com 1.10,2013-03-26 07:57:00,
2013-03-26 09:12:00,27.6,11.0,29.97,NE,51,1.0,-999.0,50,-99.99,,,0.00,144,weatherlink.com 1.10,2013-03-26 08:12:00,
2013-03-26 09:42:00,28.3,10.0,29.97,NE,38,2.0,-999.0,47,-99.99,,,0.00,171,weatherlink.com 1.10,2013-03-26 08:42:00,
2013-03-26 09:57:00,28.8,10.0,29.97,NNE,26,4.0,-999.0,46,-99.99,,,0.00,192,weatherlink.com 1.10,2013-03-26 08:57:00,
2013-03-26 10:12:00,28.9,10.0,29.98,NNE,13,3.0,-999.0,46,-99.99,,,0.00,200,weatherlink.com 1.10,2013-03-26 09:12:00,
2013-03-26 10:27:00,29.1,10.0,29.97,NE,38,1.0,-999.0,45,-99.99,,,0.00,237,weatherlink.com 1.10,2013-03-26 09:27:00,
2013-03-26 10:42:00,29.7,11.0,29.97,East,87,5.0,-999.0,45,-99.99,,,0.00,241,weatherlink.com 1.10,2013-03-26 09:42:00,
2013-03-26 10:56:00,30.3,10.0,29.97,ENE,60,2.0,-999.0,43,-99.99,,,0.00,272,weatherlink.com 1.10,2013-03-26 09:56:00,
2013-03-26 11:12:00,30.8,10.0,29.97,NE,51,6.0,-999.0,42,-99.99,,,0.00,309,weatherlink.com 1.10,2013-03-26 10:12:00,
2013-03-26 11:27:00,31.2,10.0,29.96,NNE,27,2.0,-999.0,42,-99.99,,,0.00,334,weatherlink.com 1.10,2013-03-26 10:27:00,
2013-03-26 11:42:00,31.9,11.0,29.97,NE,35,1.0,-999.0,41,-99.99,,,0.00,364,weatherlink.com 1.10,2013-03-26 10:42:00,
2013-03-26 11:57:00,32.0,9.0,29.97,NE,34,2.0,-999.0,39,-99.99,,,0.00,352,weatherlink.com 1.10,2013-03-26 10:57:00,
2013-03-26 12:12:00,32.0,9.0,29.97,NE,42,3.0,-999.0,39,-99.99,,,0.00,309,weatherlink.com 1.10,2013-03-26 11:12:00,
2013-03-26 12:27:00,31.8,9.0,29.97,East,87,2.0,-999.0,39,-99.99,,,0.00,274,weatherlink.com 1.10,2013-03-26 11:27:00,
2013-03-26 12:42:00,32.2,10.0,29.97,NNE,21,3.0,-999.0,39,-99.99,,,0.00,269,weatherlink.com 1.10,2013-03-26 11:42:00,
2013-03-26 12:57:00,32.4,9.0,29.97,North,6,5.0,-999.0,38,-99.99,,,0.00,265,weatherlink.com 1.10,2013-03-26 11:57:00,
2013-03-26 13:12:00,33.2,9.0,29.96,North,9,1.0,-999.0,37,-99.99,,,0.00,257,weatherlink.com 1.10,2013-03-26 12:12:00,
2013-03-26 13:27:00,32.6,9.0,29.96,ENE,77,1.0,-999.0,38,-99.99,,,0.00,251,weatherlink.com 1.10,2013-03-26 12:27:00,
2013-03-26 13:57:00,33.0,9.0,29.96,NE,47,3.0,-999.0,37,-99.99,,,0.00,202,weatherlink.com 1.10,2013-03-26 12:57:00,
2013-03-26 14:12:00,33.1,10.0,29.96,NNE,28,0.0,-999.0,38,-99.99,,,0.00,190,weatherlink.com 1.10,2013-03-26 13:12:00,
2013-03-26 14:27:00,33.4,10.0,29.96,NNE,32,1.0,-999.0,37,-99.99,,,0.00,179,weatherlink.com 1.10,2013-03-26 13:27:00,
2013-03-26 14:41:00,33.3,10.0,29.96,NE,38,1.0,-999.0,38,-99.99,,,0.00,176,weatherlink.com 1.10,2013-03-26 13:41:00,
2013-03-26 14:57:00,32.9,9.0,29.95,East,79,4.0,-999.0,37,-99.99,,,0.00,153,weatherlink.com 1.10,2013-03-26 13:57:00,
2013-03-26 15:12:00,32.8,8.0,29.96,NE,40,2.0,-999.0,36,-99.99,,,0.00,105,weatherlink.com 1.10,2013-03-26 14:12:00,
2013-03-26 15:27:00,32.5,9.0,29.96,North,8,2.0,-999.0,37,-99.99,,,0.00,100,weatherlink.com 1.10,2013-03-26 14:27:00,
2013-03-26 15:42:00,32.6,9.0,29.95,North,10,1.0,-999.0,37,-99.99,,,0.00,97,weatherlink.com 1.10,2013-03-26 14:42:00,
2013-03-26 15:57:00,32.4,9.0,29.96,SE,125,2.0,-999.0,37,-99.99,,,0.00,97,weatherlink.com 1.10,2013-03-26 14:57:00,
2013-03-26 16:12:00,32.2,8.0,29.96,NE,56,1.0,-999.0,37,-99.99,,,0.00,83,weatherlink.com 1.10,2013-03-26 15:12:00,
2013-03-26 16:27:00,32.1,10.0,29.96,NE,42,2.0,-999.0,39,-99.99,,,0.00,67,weatherlink.com 1.10,2013-03-26 15:27:00,
2013-03-26 16:42:00,31.8,9.0,29.96,NW,315,4.0,-999.0,39,-99.99,,,0.00,54,weatherlink.com 1.10,2013-03-26 15:42:00,
2013-03-26 16:57:00,31.6,10.0,29.96,NE,44,2.0,-999.0,40,-99.99,,,0.00,47,weatherlink.com 1.10,2013-03-26 15:57:00,
2013-03-26 17:12:00,31.4,10.0,29.96,NNE,17,2.0,-999.0,40,-99.99,,,0.00,35,weatherlink.com 1.10,2013-03-26 16:12:00,
2013-03-26 17:27:00,31.1,10.0,29.97,ENE,63,0.0,-999.0,41,-99.99,,,0.00,26,weatherlink.com 1.10,2013-03-26 16:27:00,
2013-03-26 17:42:00,30.8,11.0,29.97,NNE,28,1.0,-999.0,43,-99.99,,,0.00,14,weatherlink.com 1.10,2013-03-26 16:42:00,
2013-03-26 17:57:00,30.7,11.0,29.98,NNW,335,0.0,-999.0,44,-99.99,,,0.00,9,weatherlink.com 1.10,2013-03-26 16:57:00,
2013-03-26 18:12:00,30.4,11.0,29.98,NE,46,1.0,-999.0,44,-99.99,,,0.00,0,weatherlink.com 1.10,2013-03-26 17:12:00,
2013-03-26 18:27:00,30.2,11.0,29.98,NE,35,1.0,-999.0,45,-99.99,,,0.00,0,weatherlink.com 1.10,2013-03-26 17:27:00,
2013-03-26 18:42:00,30.0,11.0,29.99,NNE,15,2.0,-999.0,46,-99.99,,,0.00,0,weatherlink.com 1.10,2013-03-26 17:42:00,
2013-03-26 18:57:00,29.7,12.0,29.99,NE,38,2.0,-999.0,48,-99.99,,,0.00,0,weatherlink.com 1.10,2013-03-26 17:57:00,
2013-03-26 19:12:00,29.6,12.0,29.99,NW,314,2.0,-999.0,48,-99.99,,,0.00,0,weatherlink.com 1.10,2013-03-26 18:12:00,
2013-03-26 19:27:00,29.4,12.0,30.00,North,9,1.0,-999.0,49,-99.99,,,0.00,0,weatherlink.com 1.10,2013-03-26 18:27:00,
2013-03-26 19:42:00,29.3,13.0,30.00,ENE,74,0.0,-999.0,50,-99.99,,,0.00,0,weatherlink.com 1.10,2013-03-26 18:42:00,
2013-03-26 19:57:00,29.2,13.0,30.00,WSW,253,1.0,-999.0,51,-99.99,,,0.00,0,weatherlink.com 1.10,2013-03-26 18:57:00,
2013-03-26 20:12:00,29.0,13.0,30.01,NW,324,1.0,-999.0,51,-99.99,,,0.00,0,weatherlink.com 1.10,2013-03-26 19:12:00,
2013-03-26 20:27:00,29.0,13.0,30.01,NW,319,0.0,-999.0,52,-99.99,,,0.00,0,weatherlink.com 1.10,2013-03-26 19:27:00,
2013-03-26 20:42:00,28.9,13.0,30.01,East,81,2.0,-999.0,52,-99.99,,,0.00,0,weatherlink.com 1.10,2013-03-26 19:42:00,
2013-03-26 20:57:00,28.8,13.0,30.02,NNE,31,4.0,-999.0,52,-99.99,,,0.00,0,weatherlink.com 1.10,2013-03-26 19:57:00,
2013-03-26 21:12:00,28.7,13.0,30.02,North,10,1.0,-999.0,52,-99.99,,,0.00,0,weatherlink.com 1.10,2013-03-26 20:12:00,
2013-03-26 21:27:00,28.6,13.0,30.02,North,356,0.0,-999.0,53,-99.99,,,0.00,0,weatherlink.com 1.10,2013-03-26 20:27:00,
2013-03-26 21:42:00,28.4,14.0,30.03,NE,38,2.0,-999.0,54,-99.99,,,0.00,0,weatherlink.com 1.10,2013-03-26 20:42:00,
2013-03-26 21:57:00,28.1,14.0,30.03,NE,47,0.0,-999.0,55,-99.99,,,0.00,0,weatherlink.com 1.10,2013-03-26 20:57:00,
2013-03-26 22:12:00,28.0,14.0,30.02,NE,56,0.0,-999.0,56,-99.99,,,0.00,0,weatherlink.com 1.10,2013-03-26 21:12:00,
2013-03-26 22:27:00,28.0,14.0,30.02,East,95,5.0,-999.0,55,-99.99,,,0.00,0,weatherlink.com 1.10,2013-03-26 21:27:00,
2013-03-26 22:42:00,27.9,14.0,30.02,NE,48,3.0,-999.0,57,-99.99,,,0.00,0,weatherlink.com 1.10,2013-03-26 21:42:00,
2013-03-26 22:57:00,27.6,15.0,30.02,NNE,12,0.0,-999.0,59,-99.99,,,0.00,0,weatherlink.com 1.10,2013-03-26 21:57:00,
2013-03-26 23:12:00,27.6,14.0,30.01,NE,40,0.0,-999.0,57,-99.99,,,0.00,0,weatherlink.com 1.10,2013-03-26 22:12:00,
2013-03-26 23:27:00,27.7,14.0,30.01,NNE,17,0.0,-999.0,56,-99.99,,,0.00,0,weatherlink.com 1.10,2013-03-26 22:27:00,
2013-03-26 23:42:00,27.8,14.0,30.01,NE,37,1.0,-999.0,56,-99.99,,,0.00,0,weatherlink.com 1.10,2013-03-26 22:42:00,
2013-03-26 23:57:00,27.8,13.0,30.01,East,84,2.0,-999.0,55,-99.99,,,0.00,0,weatherlink.com 1.10,2013-03-26 22:57:00,